Location: Helion Bumpstead
(52.0500°N, 0.4000°E)
Time: 21:46:21
(UTC+00:00)

CENTAUR R/B - Pass Details

Date: 15 November 2025
Orbit: 633 x 1547 km, 63.4° (Epoch: 06 December)

Event Time Altitude Azimuth Distance (km) Brightness Sun altitude
Exits shadow 03:39:49 41° 342° (NNW) 1,807 3.7 -33.3°
Maximum altitude 03:42:18 53° 30° (NNE) 1,621 3.7 -32.9°
Drops below altitude 10° 03:51:10 10° 106° (ESE) 3,647 6.2 -31.6°
Sets 03:54:27 0° 111° (ESE) 4,678 6.9 -31.1°
